Wetbulb
53.66 53.50 53.31 53.25 53.12 53.06 53.03 52.79 52.69 52.51 52.41 52.46 52.45 52.45 52.78 53.48 53.26 45.87 40.62 44.52 47.63 52.47 53.46 48.11 47.60 48.13 48.52 45.38 48.18 49.89 42.14 37.78 40.12 41.22 42.41 45.50 45.32 48.03 51.65 50.50 52.00 58.27 56.32 59.31 64.20
53.13 53.25 53.53 53.48 53.29 53.05 53.03 53.08 53.15 53.20 52.77 52.75 52.49 52.61 53.06 53.07 46.01 41.49 48.25 52.90 53.42 52.88 45.50 43.57 41.98 45.49 41.61 41.83 43.69 41.47 36.40 39.04 43.89 43.24 42.05 45.73 46.62 46.20 47.93 50.28 49.97 54.57 59.91 62.99 64.52
52.10 52.63 52.87 52.63 52.97 52.76 52.84 52.95 52.72 52.51 52.82 53.11 52.07 52.13 52.66 50.01 39.35 39.15 52.81 54.45 53.80 50.67 47.20 45.42 44.79 42.96 38.15 40.83 39.68 38.73 35.99 39.76 42.94 44.11 45.22 43.91 45.75 47.79 47.58 46.69 49.31 51.26 52.75 62.77 63.58
52.71 52.67 53.26 52.58 52.81 52.88 52.98 53.11 52.61 52.57 52.27 52.53 52.66 52.47 52.48 44.91 26.57 42.78 52.07 52.03 53.51 46.72 43.89 41.07 41.26 37.05 34.47 34.52 40.11 35.20 38.41 39.43 40.44 42.85 42.32 43.08 45.96 45.44 47.35 48.08 52.58 52.58 53.24 58.31 62.28
53.36 53.62 52.89 52.59 52.60 52.76 52.73 52.92 53.00 52.86 52.66 52.62 52.77 52.38 48.27 38.64 37.74 46.39 52.16 51.13 45.94 43.85 40.45 38.89 36.15 37.11 32.79 34.59 36.76 35.63 36.55 38.82 39.76 40.61 41.49 42.86 42.62 44.63 45.78 49.57 53.69 54.28 53.11 53.81 59.67
53.49 53.27 53.00 52.58 52.49 52.75 52.90 53.13 53.31 53.07 52.81 52.78 52.12 52.03 43.50 33.98 44.46 45.82 45.21 44.75 43.49 40.81 38.26 38.72 36.80 38.63 35.99 35.03 33.23 35.86 35.77 35.99 37.89 38.37 39.91 39.04 40.62 43.36 45.72 50.35 51.00 52.84 52.48 54.31 58.62
53.18 53.22 52.92 52.58 52.66 52.98 53.17 53.31 53.39 53.24 53.12 53.10 52.39 48.19 41.41 37.88 44.43 44.49 45.06 43.23 43.35 41.69 38.15 39.95 39.48 37.48 36.13 33.08 37.27 36.16 32.13 33.87 34.66 36.07 36.77 42.34 36.91 38.10 44.85 48.44 49.75 51.12 52.75 51.77 57.72
53.15 53.47 52.83 52.62 52.83 53.12 53.31 53.49 53.38 53.28 53.17 52.77 52.01 46.85 37.65 44.38 43.17 43.10 43.01 42.03 43.66 43.48 41.45 41.48 42.57 38.87 35.79 36.38 33.96 31.47 31.81 25.44 31.29 33.36 37.05 39.85 28.87 39.04 45.98 48.29 48.56 50.49 51.49 50.85 55.14
53.52 53.38 53.05 52.96 53.10 53.20 53.27 53.08 52.98 53.00 51.82 51.32 45.94 42.30 33.89 45.26 40.66 43.54 43.22 40.77 42.99 42.98 42.35 43.68 40.70 34.91 35.06 30.12 25.36 26.14 17.88 21.86 27.39 34.72 34.67 36.49 29.71 37.70 42.87 46.25 47.51 49.31 51.01 50.56 51.91
53.50 53.32 53.02 52.90 52.68 52.66 52.68 52.46 50.59 46.21 44.42 45.50 42.95 32.45 34.56 34.37 39.43 41.42 42.52 43.04 39.68 39.79 39.04 38.28 34.92 30.78 30.27 27.23 17.14 15.53 20.10 22.76 21.99 29.91 33.29 32.78 34.17 38.97 43.50 47.22 47.15 47.30 50.20 49.12 53.73
53.03 52.39 52.45 52.53 52.30 51.91 45.75 39.24 34.33 31.50 34.82 30.82 29.72 31.84 34.16 37.61 40.07 38.64 41.92 41.48 40.95 37.24 31.04 36.05 28.93 23.75 25.68 27.70 27.52 24.16 21.87 20.56 24.79 29.43 29.86 30.59 30.94 34.68 39.59 43.53 47.13 48.14 46.84 49.79 51.44
52.27 51.81 51.51 52.26 51.72 49.78 41.47 35.77 35.39 35.96 28.37 34.51 34.71 34.22 36.33 36.81 32.33 37.33 43.10 36.94 34.84 29.69 33.59 29.62 25.30 29.66 30.66 30.15 27.17 25.17 18.36 17.23 25.52 30.68 29.52 30.53 31.95 36.66 38.70 43.11 46.57 48.16 48.46 50.55 48.46
51.65 51.73 51.39 51.62 50.34 42.33 38.42 38.17 41.06 38.02 25.31 28.91 33.96 33.64 35.30 37.71 34.15 34.57 40.41 37.70 31.66 28.62 29.74 26.95 29.17 33.05 29.58 28.93 26.50 25.76 22.31 20.78 21.60 29.21 32.54 31.23 30.69 34.56 39.73 44.31 46.89 48.36 49.63 49.02 47.67
51.96 51.87 51.56 51.16 40.80 39.51 37.48 41.80 40.27 35.09 9.18 20.67 28.37 32.74 36.22 37.02 32.30 39.65 42.32 38.20 34.94 29.58 31.44 29.93 32.98 31.11 29.70 26.85 28.53 23.12 27.99 26.56 25.04 25.01 21.75 32.33 24.21 34.26 38.91 41.39 44.63 45.56 45.71 43.78 44.09
52.59 51.82 51.73 47.37 39.41 37.41 39.78 40.48 38.04 31.54 0.82 24.79 27.88 38.18 34.34 30.36 33.74 36.71 42.84 40.23 34.29 32.57 30.46 28.87 31.58 29.85 27.82 27.99 30.27 25.58 30.09 27.33 27.14 26.88 28.01 29.83 27.61 33.17 39.40 38.55 40.32 40.80 40.01 40.04 39.71
52.34 52.00 49.49 44.65 40.03 39.14 40.15 37.30 32.23 12.73 -0.05 13.62 25.73 26.06 23.34 28.73 32.66 36.44 37.47 41.19 39.13 34.85 34.46 31.64 36.02 33.01 30.30 32.13 32.49 32.60 30.60 29.53 29.60 26.76 21.89 26.59 28.96 30.42 34.51 38.46 37.91 37.57 37.67 37.91 37.83
51.04 48.51 44.15 42.25 36.65 38.95 37.63 30.07 13.69 3.73 16.13 13.92 19.94 25.45 22.44 22.38 28.55 31.20 31.44 30.10 28.76 24.11 17.16 27.88 31.87 36.00 35.94 30.28 33.71 32.08 29.03 20.72 19.45 19.85 17.77 31.40 28.91 26.32 32.51 39.00 36.69 34.92 36.00 37.14 37.77
46.92 44.41 42.05 39.80 37.44 37.56 31.13 20.49 2.64 2.93 6.71 23.07 24.33 24.12 17.18 26.20 25.48 27.09 26.49 26.61 31.51 30.04 25.04 19.91 22.12 31.49 36.70 35.01 31.70 30.74 28.99 23.38 18.08 18.99 22.33 28.55 22.43 25.48 31.78 32.95 32.80 33.20 33.66 35.03 35.46
45.74 37.85 36.64 38.40 37.88 34.26 24.25 5.75 3.30 16.64 23.21 21.85 22.33 11.53 11.96 24.35 24.89 21.25 20.95 26.42 31.01 32.25 24.78 22.12 24.72 34.47 35.08 35.31 36.27 31.91 27.26 32.30 26.39 23.29 20.42 23.83 26.52 32.02 32.85 31.01 31.32 30.96 31.76 31.36 32.21
37.28 35.27 35.36 38.91 36.70 28.63 17.30 13.38 16.05 25.09 25.59 24.93 15.04 18.16 9.85 16.82 19.98 17.67 19.36 28.14 29.66 33.47 33.92 29.08 23.47 31.81 32.47 35.89 35.94 32.81 33.96 26.16 28.15 18.90 16.36 23.24 24.41 24.81 29.62 29.35 30.95 30.42 30.10 30.99 32.40
34.41 26.20 35.70 36.82 30.81 20.91 8.30 5.33 21.96 27.49 27.76 23.60 21.56 16.78 20.25 19.61 22.38 18.96 21.40 28.96 32.46 32.39 34.41 32.51 28.96 28.59 33.22 31.12 30.03 30.36 28.93 29.58 28.05 26.65 20.87 18.96 22.08 31.73 31.12 33.09 32.32 31.94 31.80 31.91 32.13
28.97 18.67 35.29 32.96 18.50 -2.67 3.10 10.35 27.25 26.15 29.09 27.09 27.26 24.27 22.13 23.39 22.11 22.77 23.48 28.55 33.65 32.40 29.72 32.63 29.41 25.03 28.61 34.48 35.75 33.26 29.76 29.51 25.06 22.08 24.48 23.00 21.37 31.21 29.31 32.47 34.95 34.10 33.49 33.85 34.07
23.67 23.48 33.47 31.05 9.93 14.95 17.74 24.13 26.35 25.76 25.22 25.72 25.75 27.26 27.92 21.92 20.87 24.76 25.75 31.51 32.81 30.20 29.42 31.86 24.72 20.31 24.24 28.44 31.54 28.49 28.96 29.34 28.76 28.62 23.05 21.07 21.63 31.42 28.84 27.47 29.30 32.67 33.68 34.34 33.89
24.80 17.92 22.32 21.66 18.29 14.52 15.87 17.98 16.62 27.43 26.04 28.67 26.84 27.08 26.12 21.57 26.09 22.84 25.09 28.71 31.33 29.73 34.71 33.87 28.19 22.69 20.76 23.81 26.78 23.16 26.06 27.68 25.48 20.72 23.54 23.93 24.97 27.90 27.71 26.85 27.20 29.02 30.92 31.78 33.29
22.12 17.18 20.22 12.25 15.58 18.62 20.38 22.66 18.91 15.77 25.49 27.21 21.74 26.06 24.72 20.68 21.66 21.12 25.24 25.74 29.24 29.59 29.06 30.28 23.05 26.42 25.65 25.57 26.11 23.80 22.77 25.65 22.26 18.33 19.98 25.75 25.94 27.88 28.01 26.96 27.31 28.07 29.14 30.06 30.36
23.07 22.60 22.63 14.03 24.00 22.62 20.87 23.16 23.88 23.92 24.09 21.94 23.35 25.66 26.91 22.30 23.40 21.21 23.92 23.98 23.83 25.97 24.41 27.37 25.13 22.50 19.83 23.04 25.59 22.53 23.44 24.04 24.86 23.73 23.99 25.43 25.43 29.59 30.07 29.49 27.86 27.94 28.70 28.85 29.22
27.78 28.93 27.83 23.51 22.92 18.22 18.55 22.96 23.19 24.65 24.52 26.85 26.55 25.64 23.59 24.68 26.55 28.02 28.56 28.44 26.82 24.76 21.43 20.69 18.01 16.71 16.46 17.73 17.74 18.50 21.84 21.50 24.53 25.29 22.75 20.38 26.13 29.55 29.69 30.23 29.42 29.60 29.33 28.76 29.03
MSLP
1023.33 1023.36 1023.36 1023.29 1023.15 1023.06 1022.92 1022.80 1022.71 1022.55 1022.40 1022.26 1021.98 1021.84 1021.63 1021.44 1020.75 1021.13 1020.64 1019.36 1018.96 1018.59 1018.64 1018.75 1018.72 1018.90 1018.71 1018.90 1018.51 1018.09 1017.27 1014.61 1013.87 1014.34 1014.28 1013.86 1013.56 1013.33 1012.96 1012.74 1012.08 1011.73 1011.77 1011.36 1011.35
1023.31 1023.30 1023.23 1023.12 1022.94 1022.77 1022.58 1022.45 1022.32 1022.33 1022.16 1022.05 1021.72 1021.61 1021.48 1021.39 1021.16 1020.62 1019.16 1018.65 1018.50 1018.65 1018.78 1019.12 1019.27 1019.33 1019.46 1019.32 1019.13 1018.55 1017.11 1014.93 1014.97 1014.98 1014.61 1014.10 1013.74 1013.81 1013.53 1012.76 1012.01 1011.88 1011.73 1011.63 1011.70
1023.09 1023.06 1022.99 1022.93 1022.73 1022.49 1022.30 1022.25 1022.22 1022.03 1021.85 1021.66 1021.50 1021.59 1021.46 1021.37 1021.35 1019.87 1018.69 1018.33 1018.63 1018.61 1019.01 1019.17 1019.45 1019.70 1019.95 1019.75 1019.44 1018.53 1016.57 1016.71 1015.73 1015.57 1015.44 1015.23 1014.41 1013.89 1013.43 1012.61 1012.03 1012.10 1012.25 1012.17 1011.84
1022.97 1022.95 1022.88 1022.87 1022.69 1022.37 1022.13 1021.94 1021.80 1021.69 1021.60 1021.48 1021.39 1021.43 1021.31 1021.62 1021.06 1018.95 1018.65 1018.45 1018.55 1018.99 1019.18 1019.43 1019.78 1020.12 1020.24 1019.95 1019.38 1019.03 1017.84 1017.83 1017.26 1016.65 1016.45 1015.89 1015.41 1014.71 1013.25 1012.36 1011.74 1011.89 1012.09 1012.64 1012.28
1022.77 1022.57 1022.63 1022.46 1022.35 1022.11 1021.86 1021.76 1021.49 1021.29 1021.19 1021.14 1021.17 1021.23 1021.31 1021.17 1020.12 1018.67 1018.59 1018.65 1018.87 1019.18 1019.39 1019.65 1020.00 1020.37 1020.39 1020.07 1019.78 1018.98 1018.45 1018.14 1017.78 1017.32 1016.73 1016.03 1015.24 1015.35 1013.41 1012.75 1011.89 1011.51 1011.48 1012.01 1012.41
1022.58 1022.53 1022.42 1022.38 1022.19 1021.99 1021.72 1021.37 1021.07 1020.85 1020.82 1020.90 1020.76 1020.88 1021.25 1020.49 1018.89 1018.74 1018.82 1019.01 1019.11 1019.40 1019.60 1019.81 1019.80 1019.96 1020.32 1020.17 1020.06 1019.07 1018.90 1018.55 1018.25 1017.70 1017.01 1016.36 1015.10 1015.37 1012.89 1012.49 1012.13 1011.84 1011.35 1011.66 1011.79
1022.40 1022.23 1022.17 1021.98 1021.84 1021.65 1021.23 1021.01 1020.73 1020.52 1020.40 1020.31 1020.43 1020.68 1020.58 1019.10 1018.50 1018.60 1018.65 1018.99 1019.11 1019.26 1019.46 1019.53 1019.72 1020.13 1019.97 1020.22 1019.83 1019.61 1019.28 1018.77 1018.10 1017.80 1017.17 1016.32 1015.14 1012.84 1013.53 1013.10 1012.45 1011.92 1011.48 1011.64 1011.55
1022.17 1022.01 1021.96 1021.70 1021.51 1021.25 1020.90 1020.76 1020.42 1020.14 1020.05 1020.12 1019.98 1020.34 1019.59 1018.40 1018.30 1018.28 1018.39 1018.62 1018.51 1018.68 1019.08 1019.12 1019.32 1019.77 1020.00 1020.02 1019.94 1019.83 1019.47 1018.82 1017.69 1017.39 1016.92 1016.39 1013.19 1012.56 1012.97 1012.55 1012.08 1011.89 1011.46 1011.55 1011.46
1021.71 1021.70 1021.54 1021.26 1021.05 1020.80 1020.64 1020.35 1019.98 1019.64 1019.45 1019.46 1020.07 1020.20 1019.33 1018.30 1018.15 1017.75 1017.98 1018.24 1018.28 1018.31 1018.52 1018.65 1019.12 1019.35 1019.87 1020.25 1020.40 1020.01 1019.70 1018.91 1018.05 1017.12 1016.63 1015.64 1013.43 1012.62 1012.75 1012.32 1011.74 1011.64 1011.55 1011.58 1011.30
1021.22 1021.19 1021.10 1020.87 1020.71 1020.42 1020.18 1019.91 1019.34 1019.25 1019.22 1019.38 1020.27 1021.03 1019.20 1018.24 1017.78 1017.58 1017.60 1017.74 1018.02 1018.07 1018.27 1018.48 1018.69 1018.70 1019.13 1019.19 1018.00 1018.91 1019.13 1018.72 1018.15 1016.70 1015.94 1015.06 1013.63 1012.84 1012.07 1011.73 1011.39 1011.40 1011.29 1011.60 1011.80
1020.89 1020.96 1020.80 1020.74 1020.51 1020.41 1020.62 1020.09 1020.33 1020.20 1020.07 1019.62 1019.80 1019.63 1018.78 1018.04 1017.82 1017.33 1017.12 1017.45 1017.59 1017.81 1017.41 1017.42 1017.74 1016.61 1016.78 1017.36 1017.92 1018.64 1019.13 1018.47 1017.24 1016.09 1015.87 1014.82 1013.98 1012.76 1012.23 1011.89 1011.30 1011.16 1011.45 1011.82 1012.62
1020.51 1020.50 1020.56 1020.50 1020.45 1020.55 1020.82 1021.07 1021.22 1021.72 1021.00 1019.84 1019.51 1019.57 1018.78 1018.63 1018.02 1016.96 1016.96 1017.29 1017.07 1016.77 1016.85 1017.10 1015.09 1013.94 1016.48 1017.04 1017.49 1018.06 1018.37 1017.97 1017.00 1016.07 1015.57 1014.26 1013.11 1012.33 1011.75 1011.39 1011.03 1011.17 1011.83 1012.21 1013.31
1020.01 1020.11 1020.23 1020.32 1020.48 1020.77 1021.02 1021.18 1021.05 1021.12 1021.78 1020.05 1019.38 1018.93 1018.47 1018.60 1017.82 1016.40 1016.54 1016.66 1016.56 1016.34 1015.82 1015.17 1012.28 1014.40 1015.40 1015.66 1016.38 1016.65 1017.15 1016.66 1016.47 1015.53 1014.68 1014.05 1012.89 1011.57 1010.91 1011.36 1011.03 1011.28 1011.82 1012.89 1013.48
1019.73 1019.89 1020.04 1020.32 1021.03 1021.16 1021.45 1021.51 1021.53 1021.46 1022.32 1020.56 1019.24 1018.44 1018.35 1018.32 1017.40 1015.87 1015.85 1016.23 1015.87 1015.28 1014.68 1013.96 1012.59 1013.42 1013.76 1013.97 1014.74 1014.97 1015.01 1015.93 1015.96 1015.81 1014.14 1013.25 1011.65 1010.53 1010.67 1011.15 1011.70 1011.98 1012.84 1013.74 1014.37
1019.47 1019.72 1019.93 1020.32 1021.04 1021.44 1021.97 1021.62 1021.53 1022.17 1022.81 1021.10 1019.48 1018.23 1018.38 1018.54 1017.08 1015.30 1014.95 1015.17 1014.69 1014.35 1014.28 1012.66 1012.01 1012.25 1012.54 1012.23 1013.49 1013.29 1014.12 1014.80 1015.03 1014.60 1013.49 1012.26 1012.37 1010.20 1010.40 1011.24 1012.08 1012.80 1013.90 1014.60 1015.61
1019.52 1019.89 1020.20 1020.71 1021.51 1021.88 1021.85 1021.91 1022.43 1023.69 1023.70 1022.22 1020.70 1019.81 1019.59 1018.45 1017.33 1015.86 1015.06 1014.72 1013.71 1013.44 1012.80 1012.14 1011.55 1011.47 1011.08 1011.75 1012.02 1012.85 1013.13 1013.85 1014.19 1013.95 1012.29 1011.32 1011.41 1011.04 1010.74 1010.81 1012.57 1013.77 1014.73 1015.55 1016.06
1019.84 1020.38 1020.66 1021.12 1022.03 1021.82 1022.04 1022.68 1024.17 1025.27 1025.28 1023.82 1022.63 1021.63 1021.11 1019.63 1017.99 1017.02 1015.93 1015.12 1014.78 1013.90 1013.12 1011.84 1011.09 1010.70 1010.75 1011.12 1011.62 1011.95 1011.48 1012.53 1013.01 1012.28 1011.44 1009.77 1011.67 1012.39 1012.17 1011.70 1012.97 1014.53 1015.66 1016.46 1017.16
1020.28 1020.64 1021.51 1021.81 1021.93 1021.93 1022.61 1023.75 1025.66 1026.91 1026.38 1024.86 1023.71 1022.46 1021.79 1020.37 1019.10 1018.09 1016.88 1015.97 1015.17 1014.76 1013.77 1012.81 1011.52 1010.73 1010.49 1010.17 1009.95 1010.72 1011.17 1010.38 1010.22 1010.31 1010.43 1010.70 1011.73 1013.45 1013.89 1013.52 1014.54 1015.64 1016.89 1017.49 1017.86
1020.48 1021.46 1021.97 1022.15 1021.85 1022.20 1023.44 1025.39 1026.90 1026.70 1026.14 1025.45 1024.08 1023.49 1022.63 1021.41 1020.88 1019.54 1017.94 1016.85 1015.97 1015.16 1014.68 1013.33 1011.71 1010.77 1010.17 1010.15 1009.74 1010.23 1010.39 1009.91 1009.83 1009.69 1010.76 1011.74 1013.16 1014.15 1014.59 1014.98 1015.73 1016.81 1017.31 1017.92 1018.27
1021.27 1022.00 1022.47 1022.16 1022.13 1023.07 1024.69 1027.10 1027.27 1026.60 1025.87 1025.38 1025.05 1024.46 1024.03 1022.44 1021.49 1020.08 1018.51 1017.21 1016.20 1015.35 1014.76 1013.35 1012.21 1010.84 1010.41 1010.12 1009.86 1009.78 1009.79 1009.82 1009.19 1009.61 1010.57 1012.00 1012.95 1014.64 1015.07 1015.80 1016.56 1017.41 1018.22 1018.98 1019.33
1021.62 1022.72 1022.45 1022.33 1022.58 1024.21 1026.81 1027.49 1026.70 1026.08 1025.56 1025.30 1024.87 1024.61 1023.93 1023.21 1022.00 1020.65 1019.00 1017.34 1016.46 1015.21 1014.38 1013.47 1012.37 1011.25 1010.44 1010.53 1010.25 1009.93 1009.60 1009.54 1009.48 1009.45 1010.25 1012.28 1014.79 1015.91 1015.63 1016.09 1017.30 1018.43 1019.13 1019.62 1019.90
1022.30 1023.59 1022.81 1022.56 1024.34 1027.51 1028.41 1027.50 1026.66 1025.61 1025.01 1024.82 1024.55 1024.41 1023.88 1023.24 1022.12 1021.01 1019.64 1018.07 1016.71 1015.97 1014.57 1013.74 1012.94 1012.03 1011.40 1010.74 1010.56 1010.29 1009.91 1009.54 1009.64 1010.80 1010.92 1012.24 1016.04 1016.62 1016.91 1017.19 1017.67 1018.79 1019.36 1020.36 1020.88
1023.21 1023.67 1022.95 1023.05 1025.83 1028.19 1027.94 1027.12 1026.29 1025.51 1025.08 1024.86 1024.48 1024.19 1023.83 1023.29 1022.61 1021.06 1019.62 1017.57 1016.93 1016.18 1015.41 1014.44 1013.84 1013.36 1012.02 1011.37 1010.98 1011.41 1011.14 1010.42 1010.11 1010.94 1012.44 1013.63 1016.74 1017.69 1017.91 1018.12 1018.74 1019.41 1020.02 1020.66 1020.78
1023.47 1024.64 1024.60 1025.50 1027.10 1027.53 1027.83 1026.96 1025.99 1025.26 1025.14 1024.97 1024.72 1024.19 1023.76 1023.09 1022.85 1021.76 1020.39 1018.43 1017.41 1016.47 1015.65 1015.12 1015.03 1014.57 1014.89 1015.02 1014.47 1013.87 1012.58 1011.47 1011.21 1012.86 1014.09 1015.17 1016.83 1018.15 1018.72 1019.08 1019.70 1020.35 1020.84 1020.99 1021.52
1024.13 1025.81 1025.84 1026.98 1027.52 1027.53 1027.36 1026.56 1026.08 1025.79 1025.28 1025.08 1024.99 1024.54 1024.41 1023.89 1023.11 1022.50 1021.20 1019.61 1017.96 1017.34 1016.51 1016.56 1016.90 1016.65 1016.55 1016.23 1015.53 1015.29 1015.09 1014.37 1013.85 1015.22 1015.70 1017.21 1017.86 1018.52 1018.96 1019.71 1020.35 1020.98 1021.40 1021.79 1022.12
1023.74 1024.85 1026.02 1026.53 1026.91 1026.96 1026.80 1026.31 1025.95 1025.61 1025.59 1025.40 1025.22 1024.80 1024.58 1024.56 1024.31 1023.68 1022.84 1021.94 1021.35 1019.21 1018.52 1018.00 1018.52 1018.35 1017.99 1017.55 1016.84 1016.86 1017.13 1016.97 1016.89 1017.54 1017.81 1018.19 1019.02 1019.75 1020.15 1020.60 1020.97 1021.54 1021.87 1022.29 1022.72
1023.18 1023.56 1024.22 1026.40 1026.82 1026.86 1026.35 1025.95 1025.87 1025.73 1025.47 1025.41 1025.31 1025.16 1024.68 1024.56 1024.45 1023.97 1023.59 1023.02 1022.79 1022.38 1021.12 1020.41 1020.53 1020.75 1020.57 1019.53 1018.52 1019.06 1020.40 1020.12 1019.43 1019.31 1019.06 1019.31 1020.38 1020.46 1020.68 1021.19 1021.78 1022.05 1022.21 1022.50 1022.94
Wind_Speed
6 6 6 6 7 8 9 10 10 10 11 12 12 13 14 14 18 4 7 10 7 9 7 4 7 6 4 3 3 0 8 19 27 22 15 3 6 2 2 5 4 2 3 5 14
7 7 9 9 9 9 10 11 12 12 11 12 12 13 15 13 9 9 12 14 13 9 1 4 3 6 3 2 3 5 10 19 7 8 4 9 13 4 5 5 4 4 0 5 17
9 8 9 10 10 9 11 12 12 12 13 14 12 13 13 7 6 6 4 15 16 11 2 2 2 2 2 2 3 5 20 13 14 13 12 12 13 7 8 12 5 2 7 7 13
10 10 10 10 11 11 13 13 13 12 12 13 12 12 13 3 7 3 8 3 12 6 3 3 2 3 4 6 6 10 13 6 6 12 11 10 13 13 11 12 6 6 1 4 15
11 11 9 10 12 12 13 14 14 14 13 13 13 11 6 5 11 7 13 11 5 2 4 5 6 3 6 5 5 12 10 7 7 14 13 16 16 12 21 13 8 7 2 6 12
10 10 9 11 12 13 15 15 15 14 13 14 13 10 4 18 5 6 5 5 4 1 2 4 5 6 4 5 8 5 8 11 8 11 11 17 19 13 6 7 8 8 5 7 11
10 11 11 12 13 15 16 16 16 16 15 14 13 3 11 20 3 5 2 4 5 6 5 5 4 6 5 3 5 7 12 13 13 9 9 7 19 32 9 19 9 7 6 4 11
12 11 11 12 13 14 15 17 17 18 16 16 13 4 9 3 4 5 2 5 6 6 8 7 7 8 8 4 4 4 5 14 5 8 7 9 25 20 9 13 15 9 7 3 9
13 12 13 14 14 15 16 16 17 19 18 13 7 4 10 7 4 5 8 5 4 3 5 6 5 8 3 14 9 6 9 6 6 10 7 15 13 18 20 16 15 9 8 5 6
15 14 12 12 11 11 12 14 14 6 5 7 4 5 5 4 3 3 5 5 7 8 6 8 5 8 12 10 20 9 10 11 12 5 15 16 16 8 15 12 12 8 9 4 8
11 9 9 10 9 6 4 5 6 4 4 6 6 5 7 5 4 6 4 3 5 5 9 9 9 19 25 22 10 6 10 9 7 15 9 15 19 21 19 14 12 8 5 1 3
12 10 10 9 5 3 3 4 4 4 9 7 8 7 9 2 7 6 4 5 5 10 11 5 22 26 15 14 19 13 7 11 12 11 11 13 15 12 17 16 15 12 7 7 4
10 8 7 5 5 4 3 4 1 4 1 7 5 4 5 4 6 8 7 1 7 8 15 17 25 14 21 17 21 21 19 17 13 3 16 4 11 11 13 11 9 11 8 7 6
8 5 4 8 2 2 2 2 3 4 7 7 3 4 1 1 7 7 8 8 6 8 10 14 19 17 15 25 18 20 25 18 15 7 11 15 5 10 17 14 13 8 9 9 7
6 4 9 4 4 3 0 2 3 5 5 9 7 2 9 5 7 2 5 6 9 13 3 7 6 15 16 21 22 15 16 22 18 17 15 15 5 4 14 17 8 9 9 8 10
8 11 10 3 3 1 2 4 5 9 7 10 6 8 9 5 4 7 5 6 7 10 5 13 5 12 9 14 20 13 10 17 11 9 9 14 10 7 13 11 11 8 10 9 12
14 11 6 2 1 1 2 4 7 6 5 11 7 10 5 7 7 3 9 9 5 8 6 6 3 2 7 12 15 16 8 7 8 5 6 8 14 3 9 6 14 13 9 8 9
13 9 7 2 1 2 4 7 7 4 6 6 7 14 2 7 4 8 8 8 2 5 5 3 3 2 7 6 4 13 9 3 6 7 4 4 4 3 6 15 15 14 12 9 9
8 3 3 4 1 3 6 7 7 3 5 9 11 6 8 5 2 7 3 3 4 5 5 4 4 2 3 2 2 7 8 0 2 3 5 4 5 2 7 12 14 12 11 10 9
3 3 2 6 3 5 8 3 1 3 5 4 4 1 4 7 7 5 4 3 9 4 4 5 6 3 3 4 6 2 5 3 4 4 5 5 8 4 4 10 9 10 10 8 8
4 4 3 4 5 8 5 5 2 4 5 3 4 4 5 5 3 5 6 5 5 9 11 5 3 6 0 6 2 3 2 2 2 4 4 5 6 7 3 9 10 8 10 7 7
4 4 3 3 7 1 3 3 4 4 3 4 4 4 4 5 5 4 5 5 8 13 9 3 4 3 3 3 1 3 5 3 1 3 5 4 4 8 8 7 9 9 10 7 7
4 2 2 4 4 2 3 1 3 3 2 3 3 1 4 4 6 4 5 6 8 11 9 7 4 3 7 4 3 7 8 5 6 4 7 4 4 5 7 10 8 9 8 5 7
4 3 5 6 1 8 3 3 1 3 2 2 4 4 7 3 2 7 8 6 13 9 14 2 6 4 6 4 5 7 19 10 5 5 8 9 8 6 7 9 8 7 7 6 6
4 3 4 1 4 3 2 1 3 4 2 0 5 4 4 5 6 5 6 9 8 16 10 5 8 9 9 6 9 17 19 21 13 2 7 8 11 7 6 7 5 5 5 6 6
6 6 2 2 2 4 2 1 2 4 0 4 2 8 5 3 3 6 9 6 4 14 10 9 3 5 6 11 15 18 23 19 14 11 12 11 11 4 7 6 7 6 5 5 5
1 3 5 2 2 4 3 2 1 2 3 3 3 4 4 3 4 8 8 10 8 8 6 6 3 6 5 9 6 12 14 14 5 8 2 7 3 2 8 10 7 6 5 6 5
Wind_Direction
358 333 322 324 330 330 329 325 322 322 326 327 331 331 327 324 313 328 270 227 213 243 296 342 9 6 2 317 286 260 244 238 233 237 239 236 244 252 291 274 306 240 219 283 144
340 339 331 324 328 325 320 320 320 313 312 313 319 323 326 338 302 287 250 254 251 253 28 24 347 5 342 307 271 207 242 246 246 235 275 252 251 208 239 247 264 312 284 147 151
314 310 303 308 305 306 309 312 312 316 316 311 317 317 320 347 337 249 213 79 66 47 25 244 229 78 257 213 237 271 244 261 277 321 320 322 306 217 222 245 204 252 322 180 170
302 290 297 299 301 299 305 304 302 304 307 305 300 317 323 89 292 230 255 157 30 27 62 32 53 154 230 223 210 251 263 283 315 301 307 304 321 305 243 238 191 192 138 242 200
301 286 286 294 290 292 298 298 299 303 301 302 302 309 326 261 251 278 287 294 357 95 181 173 188 196 224 235 247 251 266 272 271 284 285 291 281 290 280 272 236 280 343 249 233
303 305 287 289 294 292 289 294 293 294 295 296 295 303 283 265 238 240 259 306 267 254 183 172 215 200 265 241 238 280 285 275 269 270 283 269 273 304 274 245 206 211 256 296 234
297 292 285 285 291 289 289 292 293 289 289 291 291 280 261 252 231 232 210 207 210 216 234 199 214 199 192 278 272 270 277 281 264 254 253 242 266 243 278 264 265 233 235 353 252
290 288 286 286 283 285 288 288 291 288 290 288 284 243 254 242 242 266 187 266 229 219 220 227 196 221 217 295 325 271 266 253 230 209 221 183 253 252 263 227 247 239 251 281 279
288 284 280 280 278 282 285 290 291 293 293 281 269 217 260 308 271 259 183 222 180 167 201 225 167 210 209 226 239 210 245 257 283 220 232 192 260 262 262 243 230 221 233 291 344
286 292 295 294 293 291 288 294 292 326 33 83 69 45 284 255 245 231 214 202 258 252 230 199 195 204 208 198 223 197 198 230 234 231 210 231 245 251 279 216 212 216 233 342 342
301 297 299 299 303 297 359 355 12 345 36 210 198 241 291 273 280 231 185 252 204 194 206 187 202 213 214 211 218 198 226 256 237 232 242 236 238 238 253 260 209 203 209 16 69
298 295 294 291 276 100 81 76 116 197 309 267 255 254 267 248 293 263 151 208 206 226 213 210 226 218 210 216 215 219 205 238 265 269 226 249 260 247 236 248 213 204 207 142 118
279 283 284 266 129 53 91 140 135 119 305 296 223 238 283 154 259 291 167 239 221 232 224 216 237 207 200 213 212 212 213 221 223 304 225 189 267 239 257 239 209 204 187 114 128
274 261 261 148 62 148 60 4 84 90 67 285 347 295 318 241 273 216 210 212 210 252 242 241 257 224 207 213 193 216 210 222 228 237 243 175 256 212 211 186 193 151 141 122 70
240 195 156 131 148 67 11 2 108 55 25 306 305 305 316 206 296 190 195 208 258 266 219 247 227 192 205 211 201 236 193 207 209 227 235 191 234 170 173 181 166 129 111 104 90
138 142 119 75 50 5 336 61 40 43 271 327 324 336 352 305 282 306 292 223 256 284 234 265 291 187 199 195 196 192 198 195 217 253 225 211 213 164 176 176 142 130 121 111 99
103 86 68 49 153 327 66 51 34 105 332 317 335 336 334 289 308 321 321 315 333 320 344 311 175 191 234 187 201 199 171 171 195 173 240 197 194 15 334 196 142 130 102 93 96
97 82 60 59 336 94 56 48 66 241 261 308 311 314 302 346 320 315 319 341 345 301 292 318 333 217 169 232 194 190 221 234 194 171 136 336 80 34 35 76 88 97 110 100 96
92 29 47 340 354 65 71 51 202 244 317 322 322 18 320 344 358 351 301 299 304 318 318 305 285 252 316 307 190 145 204 146 239 24 98 115 98 129 89 79 88 89 86 77 72
83 67 348 316 59 62 72 145 264 253 315 304 335 63 303 312 336 17 314 279 314 320 288 285 293 351 351 277 69 265 130 186 215 131 86 83 66 24 88 106 99 95 89 87 90
63 56 273 27 54 49 111 210 268 277 297 299 311 298 272 302 284 294 285 284 322 307 308 290 272 312 224 21 4 338 3 9 119 15 121 122 74 340 64 119 124 119 121 112 81
96 53 306 57 52 18 103 176 263 311 277 268 256 253 262 304 281 294 302 279 336 320 332 303 320 26 342 263 324 332 320 259 71 83 40 68 71 8 51 81 111 120 110 109 108
97 193 314 87 105 64 246 277 260 326 329 325 296 338 280 280 306 285 301 280 335 337 342 334 14 15 338 18 26 33 341 329 82 64 38 87 105 53 56 66 65 96 98 97 87
89 61 339 49 145 123 144 281 303 283 269 301 284 295 325 303 242 304 308 300 325 341 347 15 12 77 72 32 327 26 16 17 82 74 80 58 106 74 70 82 77 68 77 76 78
41 236 181 243 344 111 206 224 355 348 310 341 342 350 355 304 318 316 314 312 318 349 356 55 35 50 62 32 50 55 31 38 55 9 74 98 80 58 56 72 81 98 96 85 91
132 129 10 123 120 96 338 255 341 335 84 315 319 319 321 267 311 311 333 10 343 327 348 345 33 344 23 4 40 51 24 21 36 44 68 85 69 29 81 90 82 94 99 98 102
198 44 100 327 109 86 233 225 289 51 288 266 297 318 314 261 248 263 269 280 274 314 312 13 37 15 334 346 16 34 1 359 14 12 130 73 92 82 59 51 38 52 74 87 86